Regional Weather Roundup
Issued by NWS

Home | Current Version | Previous Version | Text Only | Print | Product List | Glossary Off
Versions: 1 2 3 4 5 6 7 8 9 10 11 12 13 14 15 16 17 18 19 20 21 22 23 24 25 26 27 28 29 30 31 32 33 34 35 36 37 38 39 40 41 42 43 44 45 46 47 48 49 50

000
ASUS43 KLOT 010921
RWRIL

ILLINOIS REGIONAL WEATHER ROUNDUP
NATIONAL WEATHER SERVICE CHICAGO/ROMEOVILLE IL
400 AM CDT TUE SEP 01 2015

NOTE: "FAIR" INDICATES FEW OR NO CLOUDS BELOW 12,000 FEET WITH NO
SIGNIFICANT WEATHER AND/OR OBSTRUCTIONS TO VISIBILITY.

* THESE STATIONS ARE NOT UNDER NWS QUALITY CONTROL. THEY ALSO MAY NOT
  REPORT WEATHER SUCH AS PRECIPITATION OR FOG.

ILZ001-002-007-009-015-016-024-011000-
NORTHWEST ILLINOIS

CITY           SKY/WX    TMP DP  RH WIND       PRES   REMARKS
MOLINE         CLEAR     74  69  85 CALM      29.99S
STERLING*      CLEAR     72  72 100 CALM      29.99S
SAVANNA*       CLEAR     71  68  92 SE3       30.00R FOG
$$

ILZ003-004-008-010-011-017-018-011000-
NORTH CENTRAL ILLINOIS

CITY           SKY/WX    TMP DP  RH WIND       PRES   REMARKS
ROCKFORD       CLEAR     70  67  90 SE5       30.03S FOG
FREEPORT*      CLEAR     70  68  95 S6        30.02F FOG
ROCHELLE*      MOCLDY    68  68  98 CALM      30.03S FOG
DE KALB*       PTCLDY    68  68  98 S7        30.04S FOG
PERU*          CLEAR     72  70  92 S8        30.04R
$$

ILZ005-006-012>014-019>023-011000-
NORTHEAST ILLINOIS

CITY           SKY/WX    TMP DP  RH WIND       PRES   REMARKS
CHICAGO-OHARE  PTCLDY    70  68  93 CALM      30.03S
CHICAGO-MIDWAY PTCLDY    75  69  81 S5        30.04S
AURORA         CLEAR     68  66  93 CALM      30.04S FOG
LANSING*       CLEAR     69  68  96 S3        30.05S
JOLIET*          N/A     70  69  98 CALM      30.04S FOG
WAUKEGAN       CLEAR     70  68  93 SW6       30.02S FOG
DUPAGE AIRPORT CLEAR     70  67  90 S5        30.03S FOG
KANKAKEE*      PTCLDY    69  68  97 CALM      30.06S
WHEELING       CLEAR     68  65  90 CALM      30.04S
MORRIS*        CLEAR     70  68  95 CALM      30.03S FOG
ROMEOVILLE*    CLEAR     70  69  97 S6        30.04S FOG
NORTHERLY ISL    N/A     74  68  81 S2          N/A
$$

LMZ740>746-011000-
SOUTHERN LAKE MICHIGAN

STATION/POSITION SKY/WX   TEMP    WIND        PRES    VSBY  WAVE
                          AIR SEA DIR/SP/G                  HT/PER
                          (F)     (DEG/KT/KT) (MB)    (MI)  (FT/S)
SOUTHERN BUOY              71 69  180/  8/  8 1016.7R
WILMETTE HARBOR            68 61  320/  4/  4   N/A           1
HARRISON CRIB              74     180/ 11/ 13   N/A
BURNHAM HARBOR             74     210/  3/  5   N/A
CALUMET HARBOR             74     170/  5/  5   N/A
BURNS HARBOR               73     180/  8/ 11 1017.9S
MICHIGAN CITY              74     160/ 10/ 12   N/A
MICHIGAN CITY 6N           73 72  210/  6/  8   N/A           1
ST. JOSEPH                 72 71  240/  6/  6   N/A           1
$$

ILZ025>027-034>036-040-047-049-050-058-095>099-011000-
WEST-CENTRAL ILLINOIS

CITY           SKY/WX    TMP DP  RH WIND       PRES   REMARKS
QUINCY         CLEAR     73  70  90 S6        30.03S
GALESBURG*     CLEAR     71  69  95 S6        30.02S
MACOMB*        CLEAR     73  71  93 S6        30.04S
JACKSONVILLE*  CLEAR     76  72  85 S7        30.04S
PITTSFIELD*    CLEAR     74  70  87 S3        30.06R
$$

ILZ028>032-037-038-041>044-048-051>054-059>061-011000-
CENTRAL ILLINOIS

CITY           SKY/WX    TMP DP  RH WIND       PRES   REMARKS
PONTIAC        CLEAR     71  71  99 S3        30.05S FOG
BLOOMINGTON    CLEAR     72  71  96 SW8       30.07S
DECATUR        CLEAR     74  68  81 SW9       30.06F
PEORIA         CLEAR     74  70  87 S5        30.04R
LACON*         PTCLDY    72  69  92 SE5       30.02S
LINCOLN*       PTCLDY    73  69  89 S5        30.05S
SPRINGFIELD    CLEAR     74  71  91 S7        30.05S
TAYLORVILLE    CLEAR     70  68  94 S5        30.06S
$$

ILZ033-039-045-046-055>057-062-063-011000-
EAST-CENTRAL ILLINOIS

CITY           SKY/WX    TMP DP  RH WIND       PRES   REMARKS
CHAMPAIGN      CLEAR     71  68  90 S5        30.08R
RANTOUL*       PTCLDY    71  69  94 SE3       30.07S
MATTOON        CLOUDY    72  67  84 S6        30.07S
PARIS*         CLEAR     67  66  97 CALM      30.10S
$$

ILZ079-100>102-011000-
SOUTHWEST ILLINOIS

CITY           SKY/WX    TMP DP  RH WIND       PRES   REMARKS
ALTON          CLEAR     69  69  98 CALM      30.07R FOG
BELLEVILLE     CLOUDY    72  72 100 E2        30.06S
CAHOKIA*       CLEAR     72  69  90 S3        30.06S
SPARTA*        PTCLDY    69  67  93 CALM      30.09S
$$

ILZ064>066-069>071-074>076-080>082-084>086-088>090-092>094-011000-
SOUTH-CENTRAL ILLINOIS

CITY           SKY/WX    TMP DP  RH WIND       PRES   REMARKS
CARBONDALE     CLEAR     67  66  97 CALM      30.08S
CAIRO*         FOG       66  66 100 CALM      30.09R VSB 1/4
EFFINGHAM*     MOCLDY    71  67  85 CALM      30.10R
MARION         CLEAR     70  66  88 S3        30.09F
MT. VERNON     PTCLDY    68  63  83 CALM      30.10R
SALEM*         MOCLDY    72  69  89 CALM      30.08S
METROPOLIS*      N/A     66  66 100 CALM      30.10R FOG
$$

ILZ067-068-072-073-078-083-087-091-011000-
SOUTHEAST ILLINOIS

CITY           SKY/WX    TMP DP  RH WIND       PRES   REMARKS
LAWRENCEVILLE  CLEAR     67  66  97 CALM      30.09S
FLORA*         PTCLDY    67  66  95 CALM      30.09S
FAIRFIELD*     PTCLDY    68  67  98 CALM      30.08S
HARRISBURG*    CLEAR     66  66  98 CALM      30.09S
ROBINSON*      PTCLDY    64  63  96 CALM      30.11R FOG
CARMI*         CLEAR     65  65 100 CALM      30.09R FOG
$$

ABBREVIATIONS USED IN REMARKS
   TC - TEMPERATURE IN CELSIUS
  WCI - WIND CHILL INDEX
   HX - HEAT INDEX
  VSB - VISIBILITY
$$



USA.gov is the U.S. government's official web portal to all federal, state and local government web resources and services.